Location: Mercogliano
(40.9167°N, 14.7333°E)
Time: 14:06:21
(UTC+00:00)

Cosmos 2084 Rocket - Pass Details

Date: 18 September 2020
Orbit: 545 x 636 km, 62.8° (Epoch: 28 October)

Event Time Altitude Azimuth Distance (km) Brightness Sun altitude
Rises 17:32:27 0° 329° (NNW) 2,857 7.6 -6.1°
Reaches altitude 10° 17:34:48 10° 337° (NNW) 1,965 6.6 -6.5°
Maximum altitude 17:39:04 43° 49° (NE) 870 4.0 -7.3°
Drops below altitude 10° 17:43:23 10° 122° (ESE) 1,998 5.6 -8.1°
Enters shadow 17:43:50 - 123° (ESE) 2,167 5.8 -8.2°
